When you browse on this site, cookies collect data to enhance your experience and personalize the content and advertising you see.
Visit our Privacy Policy to learn more. By continuing to use the site, you agree to this use of cookies and data.
  • In Deutschland
  • Länderverzeichnis
  • Für 7 Tage
  • Wassertemperatur
  • Wetterkarte
  • Widgets
  • user-avatar
    Anmelden

    Stündliche Wetter Nikolskoe

    Heute, 24 Februar, Montag

    Zeit Temperatur Niederschläge Wind Luftdruck Luftfeuchtigkeit
    00:00 -10°C° 0 mm 3 m/S 741 mmHg 94%
    01:00 -12°C° 0 mm 3 m/S 740 mmHg 94%
    02:00 -12°C° 0 mm 3 m/S 740 mmHg 92%
    03:00 -12°C° 0 mm 4 m/S 739 mmHg 90%
    04:00 -12°C° 0 mm 4 m/S 739 mmHg 91%
    05:00 -12°C° 0 mm 4 m/S 738 mmHg 89%
    06:00 -12°C° 0 mm 5 m/S 737 mmHg 88%
    07:00 -12°C° 0 mm 5 m/S 737 mmHg 87%
    08:00 -11°C° 0 mm 6 m/S 736 mmHg 87%
    09:00 -10°C° 0 mm 6 m/S 736 mmHg 87%
    10:00 -9°C° 0 mm 6 m/S 735 mmHg 86%
    11:00 -9°C° 0.1 mm 7 m/S 735 mmHg 88%
    12:00 -9°C° 0.1 mm 7 m/S 734 mmHg 89%
    13:00 -8°C° 0.1 mm 7 m/S 734 mmHg 90%
    14:00 -8°C° 0.5 mm 7 m/S 733 mmHg 91%
    15:00 -9°C° 0.5 mm 7 m/S 733 mmHg 91%
    16:00 -9°C° 0.5 mm 7 m/S 733 mmHg 91%
    17:00 -9°C° 0.2 mm 6 m/S 732 mmHg 92%
    18:00 -9°C° 0.2 mm 6 m/S 732 mmHg 92%
    19:00 -9°C° 0.2 mm 6 m/S 732 mmHg 92%
    20:00 -8°C° 0 mm 5 m/S 732 mmHg 91%
    21:00 -8°C° 0 mm 5 m/S 731 mmHg 89%
    22:00 -8°C° 0 mm 5 m/S 731 mmHg 88%
    23:00 -8°C° 0 mm 4 m/S 731 mmHg 89%

    Morgen, 25 Februar, Dienstag

    Zeit Temperatur Niederschläge Wind Luftdruck Luftfeuchtigkeit
    00:00 -8°C° 0 mm 4 m/S 731 mmHg 90%
    01:00 -8°C° 0 mm 3 m/S 731 mmHg 91%
    02:00 -8°C° 0 mm 3 m/S 732 mmHg 91%
    03:00 -9°C° 0 mm 3 m/S 732 mmHg 92%
    04:00 -8°C° 0 mm 2 m/S 733 mmHg 93%
    05:00 -8°C° 0 mm 2 m/S 733 mmHg 93%
    06:00 -7°C° 0 mm 2 m/S 733 mmHg 93%
    07:00 -7°C° 0 mm 2 m/S 734 mmHg 94%
    08:00 -6°C° 0 mm 2 m/S 734 mmHg 92%
    09:00 -5°C° 0 mm 2 m/S 734 mmHg 90%
    10:00 -4°C° 0 mm 2 m/S 734 mmHg 89%
    11:00 -3°C° 0 mm 2 m/S 734 mmHg 87%
    12:00 -2°C° 0 mm 3 m/S 734 mmHg 86%
    13:00 -1°C° 0 mm 3 m/S 735 mmHg 85%
    14:00 -2°C° 0 mm 3 m/S 734 mmHg 88%
    15:00 -2°C° 0 mm 3 m/S 734 mmHg 90%
    16:00 -4°C° 0 mm 4 m/S 734 mmHg 92%
    17:00 -4°C° 0 mm 4 m/S 733 mmHg 93%
    18:00 -5°C° 0 mm 4 m/S 733 mmHg 94%
    19:00 -5°C° 0 mm 4 m/S 733 mmHg 95%
    20:00 -4°C° 0 mm 4 m/S 733 mmHg 95%
    21:00 -4°C° 0 mm 4 m/S 732 mmHg 95%
    22:00 -4°C° 0 mm 4 m/S 732 mmHg 95%
    23:00 -4°C° 0.1 mm 4 m/S 731 mmHg 95%

    übermorgen, 26 Februar, Mittwoch

    Zeit Temperatur Niederschläge Wind Luftdruck Luftfeuchtigkeit
    00:00 -4°C° 0.1 mm 4 m/S 731 mmHg 95%
    01:00 -5°C° 0.1 mm 5 m/S 730 mmHg 95%
    02:00 -5°C° 0 mm 5 m/S 730 mmHg 94%
    03:00 -5°C° 0 mm 5 m/S 729 mmHg 93%
    04:00 -4°C° 0 mm 5 m/S 728 mmHg 93%
    05:00 -4°C° 0.1 mm 5 m/S 727 mmHg 94%
    06:00 -5°C° 0.1 mm 5 m/S 726 mmHg 94%
    07:00 -5°C° 0.1 mm 5 m/S 725 mmHg 95%
    08:00 -4°C° 1.1 mm 6 m/S 724 mmHg 96%
    09:00 -4°C° 1.1 mm 6 m/S 723 mmHg 96%
    10:00 -3°C° 1.1 mm 6 m/S 723 mmHg 97%
    11:00 -4°C° 1.5 mm 5 m/S 722 mmHg 97%
    12:00 -4°C° 1.5 mm 5 m/S 721 mmHg 96%
    13:00 -3°C° 1.5 mm 4 m/S 720 mmHg 96%
    14:00 -2°C° 0.8 mm 3 m/S 720 mmHg 96%
    15:00 -2°C° 0.8 mm 2 m/S 719 mmHg 97%
    16:00 0°C° 0.8 mm 1 m/S 719 mmHg 97%
    17:00 0°C° 0.1 mm 1 m/S 719 mmHg 97%
    18:00 -1°C° 0.1 mm 1 m/S 719 mmHg 98%
    19:00 -1°C° 0.1 mm 1 m/S 719 mmHg 98%
    20:00 -1°C° 0 mm 1 m/S 719 mmHg 96%
    21:00 -2°C° 0 mm 2 m/S 720 mmHg 94%
    22:00 -2°C° 0 mm 3 m/S 720 mmHg 92%
    23:00 -2°C° 0 mm 4 m/S 721 mmHg 91%

    27 Februar, Donnerstag

    Zeit Temperatur Niederschläge Wind Luftdruck Luftfeuchtigkeit
    00:00 -2°C° 0 mm 5 m/S 721 mmHg 89%
    01:00 -2°C° 0 mm 5 m/S 722 mmHg 88%
    02:00 -3°C° 0 mm 6 m/S 723 mmHg 87%
    03:00 -4°C° 0 mm 6 m/S 724 mmHg 86%
    04:00 -4°C° 0 mm 6 m/S 726 mmHg 85%
    05:00 -5°C° 0 mm 6 m/S 726 mmHg 84%
    06:00 -6°C° 0 mm 6 m/S 727 mmHg 83%
    07:00 -8°C° 0 mm 6 m/S 728 mmHg 82%
    08:00 -6°C° 0 mm 5 m/S 729 mmHg 78%
    09:00 -6°C° 0 mm 5 m/S 729 mmHg 74%
    10:00 -6°C° 0 mm 5 m/S 730 mmHg 71%
    11:00 -5°C° 0 mm 5 m/S 731 mmHg 75%
    12:00 -4°C° 0 mm 6 m/S 731 mmHg 80%
    13:00 -4°C° 0 mm 6 m/S 731 mmHg 85%
    14:00 -3°C° 0 mm 6 m/S 732 mmHg 84%
    15:00 -2°C° 0 mm 5 m/S 732 mmHg 84%
    16:00 -2°C° 0 mm 5 m/S 732 mmHg 84%
    17:00 -2°C° 0 mm 5 m/S 733 mmHg 85%
    18:00 -2°C° 0 mm 4 m/S 733 mmHg 86%
    19:00 -2°C° 0 mm 4 m/S 734 mmHg 88%
    20:00 -2°C° 0 mm 4 m/S 734 mmHg 89%
    21:00 -1°C° 0 mm 4 m/S 734 mmHg 90%
    22:00 -1°C° 0 mm 4 m/S 735 mmHg 91%
    23:00 -2°C° 0 mm 4 m/S 735 mmHg 90%

    28 Februar, Freitag

    Zeit Temperatur Niederschläge Wind Luftdruck Luftfeuchtigkeit
    00:00 -2°C° 0 mm 4 m/S 735 mmHg 89%
    01:00 -3°C° 0 mm 4 m/S 735 mmHg 88%
    02:00 -3°C° 0 mm 4 m/S 735 mmHg 88%
    03:00 -2°C° 0 mm 3 m/S 735 mmHg 87%
    04:00 -2°C° 0 mm 3 m/S 736 mmHg 87%
    05:00 -2°C° 0 mm 3 m/S 735 mmHg 87%
    06:00 -2°C° 0 mm 3 m/S 735 mmHg 87%
    07:00 -2°C° 0 mm 3 m/S 735 mmHg 87%
    08:00 -2°C° 0 mm 4 m/S 735 mmHg 87%
    09:00 -1°C° 0 mm 4 m/S 736 mmHg 86%
    10:00 -1°C° 0 mm 4 m/S 736 mmHg 86%
    11:00 0°C° 0 mm 4 m/S 736 mmHg 88%
    12:00 0°C° 0 mm 4 m/S 736 mmHg 91%
    13:00 +1°C° 0 mm 4 m/S 737 mmHg 93%
    14:00 0°C° 0 mm 4 m/S 737 mmHg 92%
    15:00 +1°C° 0 mm 3 m/S 737 mmHg 91%
    16:00 +1°C° 0 mm 3 m/S 738 mmHg 90%
    17:00 0°C° 0 mm 3 m/S 738 mmHg 90%
    18:00 -1°C° 0 mm 2 m/S 738 mmHg 89%
    19:00 -2°C° 0 mm 2 m/S 739 mmHg 88%
    20:00 -2°C° 0 mm 2 m/S 739 mmHg 89%
    21:00 -3°C° 0 mm 2 m/S 739 mmHg 89%
    22:00 -3°C° 0 mm 2 m/S 739 mmHg 90%
    23:00 -4°C° 0 mm 2 m/S 739 mmHg 89%

    29 Februar, Samstag

    Zeit Temperatur Niederschläge Wind Luftdruck Luftfeuchtigkeit
    00:00 -4°C° 0 mm 2 m/S 739 mmHg 88%
    01:00 -4°C° 0 mm 2 m/S 739 mmHg 88%
    02:00 -4°C° 0 mm 2 m/S 739 mmHg 86%
    03:00 -5°C° 0 mm 3 m/S 739 mmHg 85%
    04:00 -5°C° 0 mm 3 m/S 739 mmHg 83%
    05:00 -5°C° 0 mm 3 m/S 739 mmHg 79%
    06:00 -4°C° 0 mm 4 m/S 739 mmHg 76%
    07:00 -5°C° 0 mm 5 m/S 738 mmHg 72%
    08:00 -4°C° 0 mm 5 m/S 738 mmHg 70%
    09:00 -4°C° 0 mm 6 m/S 738 mmHg 68%
    10:00 -3°C° 0 mm 6 m/S 738 mmHg 66%
    11:00 -3°C° 0 mm 6 m/S 738 mmHg 67%
    12:00 -3°C° 0 mm 7 m/S 737 mmHg 68%
    13:00 -3°C° 0 mm 7 m/S 737 mmHg 69%
    14:00 -4°C° 0 mm 6 m/S 737 mmHg 71%
    15:00 -4°C° 0 mm 6 m/S 737 mmHg 73%
    16:00 -5°C° 0 mm 6 m/S 737 mmHg 75%
    17:00 -6°C° 0 mm 6 m/S 737 mmHg 79%
    18:00 -6°C° 0 mm 5 m/S 737 mmHg 82%
    19:00 -7°C° 0 mm 5 m/S 737 mmHg 85%
    20:00 -7°C° 0 mm 5 m/S 736 mmHg 87%
    21:00 -8°C° 0 mm 5 m/S 736 mmHg 88%
    22:00 -8°C° 0 mm 4 m/S 736 mmHg 89%
    23:00 -8°C° 0 mm 4 m/S 736 mmHg 90%
    Mehr zeigen